sat.trackr.live / text

‹ back to catalog

STARLINK-35077

NORAD 65529 · 2025-200K

PAYLOAD ACTIVE UNKNOWN

§ Identity

Operator
Country
US
Launch date
2025-09-06
Launch site
AFWTR
Launch vehicle
Mass (kg)
RCS (m²)

Purposes: comms

External: N2YO · Heavens-Above · Gunter

§ Orbital elements

Epoch: 2026-09-20T22:22:20.373600Z

Period
93.91 min
Inclination
97.2854°
Eccentricity
0.0000696
Mean motion
15.33444680 rev/d
Perigee alt
465.1 km
Apogee alt
466.0 km
Semi-major
6,843.7 km
B*
3.6492e-4
RAAN
330.2533°
Arg perigee
101.7782°
Mean anomaly
258.3539°
Rev number
5,870

§ Raw data

STARLINK-350771 65529U 25200K   26263.93218025  .00011724  00000+0  36492-3 0  99962 65529  97.2854 330.2533 0000696 101.7782 258.3539 15.33444680 58703

JSON: /api/v1/satellites/65529 · /tle

For live sub-satellite position, see the globe view (requires WebGL).

§ Visibility from observer

Set your observer location to see the next 7 days of passes ≥ 10°. The values pass through the URL so the page stays shareable.

No JS? Fill the form by hand. The geolocation button needs JavaScript.